Location: Stonelick Lake State Park
(39.2170°N, 84.0850°W)
Time: 12:24:48
(UTC-04:00)

Daily predictions for brighter satellites

Satellite Brightness Start Highest point End
(mag) Time Altitude Azimuth Time Altitude Azimuth Time Altitude Azimuth
SL-16 R/B 3.6 21:16:52 10° SW 21:22:15 45° WNW 21:27:40 10° N
Okean 2 3.8 21:22:38 10° SSW 21:26:48 71° W 21:30:59 10° N
Cosmos 1302 Rocket 4.2 21:22:04 10° NNW 21:27:19 81° WSW 21:32:35 10° SSE
Cosmos 1812 Rocket 4.3 21:25:35 10° N 21:29:39 36° ENE 21:33:43 10° SE
Tsikada Rocket 4.3 21:23:38 10° SSE 21:29:48 52° E 21:35:57 10° NNE
PSLV R/B 3.7 21:26:25 10° W 21:29:55 70° N 21:33:28 10° ENE
CZ-2D R/B 4.3 21:29:55 10° S 21:33:41 48° W 21:37:30 10° NNW
CZ-2C R/B 0.3 21:33:44 10° SSE 21:35:59 69° ENE 21:38:16 10° N
SPOT 5 3.8 21:32:47 10° SE 21:36:27 27° ENE 21:40:05 10° NNE
H-2A R/B 2.2 21:37:12 10° SSE 21:41:25 62° ENE 21:45:46 10° N
Lacrosse 4 Rocket 2.3 21:38:18 10° SSE 21:41:38 25° ESE 21:45:01 10° NE
YAOGAN 11 4.3 21:37:41 10° S 21:42:00 71° WSW 21:46:19 10° NNW
Cosmos 1464 Rocket 4.3 21:37:36 10° NNW 21:43:43 72° W 21:49:52 10° S
ERS-1 Rocket 3.0 21:38:44 10° SSE 21:43:45 82° ENE 21:48:47 10° NNW
deb Chang Zheng 4 3.5 21:40:24 10° NNE 21:44:48 73° ESE 21:49:08 10° S
Cosmos 2228 3.5 21:41:50 10° NNW 21:46:13 64° W 21:50:33 10° S
Cosmos 1515 4.3 21:44:07 10° SSE 21:47:41 37° E 21:51:16 10° NNE
GEOS 3 Rocket 3.7 21:42:47 10° SE 21:48:04 86° NE 21:53:19 10° NW
Cosmos 1626 Rocket 3.6 21:44:22 10° S 21:48:48 85° W 21:53:13 10° N
PSLV R/B 4.3 21:47:37 13° SE 21:49:50 28° ENE 21:52:34 10° NNE
Cosmos 1603 4.2 21:46:06 10° SSW 21:51:40 66° WNW 21:57:16 10° NNE
Atlas Centaur 2 3.3 21:49:42 10° WSW 21:56:12 43° S 22:03:24 12° ESE
Cosmos 1238 4.2 21:55:46 10° S 21:58:48 59° E 22:01:48 10° NNE
Envisat 3.1 21:54:15 11° SSE 21:59:05 60° ENE 22:04:05 10° N
Cosmos 407 Rocket 4.1 21:57:00 10° SSE 22:01:49 37° ESE 22:06:35 10° NE
Cosmos 1634 Rocket 4.4 21:56:36 10° N 22:02:27 44° ENE 22:07:18 15° SE
Cosmos 2034 Rocket 4.4 21:58:45 10° NNW 22:05:03 66° W 22:11:16 10° S
Cosmos 1943 Rocket 3.7 22:00:56 10° N 22:05:09 21° NE 22:08:55 12° E
Nimbus 7 Rocket 4.4 22:00:49 10° NNE 22:06:48 80° ESE 22:12:40 10° SSW
Cosmos 1953 Rocket 4.2 22:06:21 16° SSE 22:09:23 36° E 22:13:27 10° NNE
Cosmos 1943 3.1 22:06:18 10° SSW 22:11:57 75° ESE 22:17:39 10° NNE
Cosmos 1939 Rocket 3.2 22:13:44 11° S 22:17:41 66° W 22:21:48 10° NNW
Cosmos 1953 4.4 22:17:45 10° NE 22:19:38 13° ENE 22:20:31 12° E
Cosmos 1346 Rocket 2.7 22:27:05 20° S 22:29:37 63° E 22:33:31 10° NNE
Cosmos 1992 Rocket 4.2 22:28:55 10° NNW 22:34:06 67° WSW 22:37:49 19° S
Cosmos 1842 4.2 22:35:17 28° ESE 22:35:54 30° E 22:39:21 10° NNE
SeaSat 1 2.4 22:35:39 26° SSE 22:38:29 81° ENE 22:43:28 10° NNW
ARGOS 3.4 22:36:49 26° SE 22:39:46 55° ENE 22:45:04 10° N
SL-23 DEB 4.4 22:35:23 10° SW 22:42:28 80° SE 22:46:31 10° NE
COSMOS 2455 4.4 22:37:00 10° WSW 22:42:34 38° NW 22:48:09 10° NNE
Cosmos 1758 Rocket 3.5 22:40:28 25° S 22:42:57 70° E 22:47:18 10° NNE
USA 81 4.1 22:38:27 10° N 22:43:45 81° W 22:47:29 20° S
Meteor 1-21 4.3 22:39:58 21° S 22:43:50 61° E 22:49:35 10° NNE
MetOp-B 4.3 22:45:19 21° S 22:48:55 72° WSW 22:54:17 10° NNW
ISS -0.2 22:47:52 10° WNW 22:50:06 17° NNW 22:52:20 10° NNE
CZ-4B R/B 3.7 22:49:48 10° N 22:54:56 73° WNW 22:59:55 11° SSW
Cosmos 2369 Rocket 2.5 22:50:31 10° NNW 22:56:05 59° WSW 22:59:13 25° S
Landsat 7 4.2 22:58:24 36° ESE 22:59:54 50° ENE 23:04:30 10° N
Cosmos 1766 3.2 22:58:01 10° N 23:02:03 84° E 23:03:02 50° SSE
CZ-4 R/B 4.0 23:01:07 10° NNE 23:06:09 82° WNW 23:09:21 23° SSW
H-2A R/B 2.5 23:04:51 35° ESE 23:06:19 45° ENE 23:11:08 10° N
DELTA 2 DEB (DPAF) 4.1 23:05:25 46° SE 23:06:41 71° ENE 23:11:10 10° N
YAOGAN 6 3.5 23:06:29 32° SSW 23:07:43 46° W 23:11:21 10° NNW
PSLV R/B 3.5 23:04:11 10° WNW 23:07:44 72° N 23:08:17 57° ENE
Cosmos 1758 3.8 23:03:56 10° N 23:07:54 44° E 23:08:15 43° E
NOAA 11 4.1 23:05:44 35° SSE 23:08:09 90° ENE 23:13:36 10° NNW
ATLAS 3B R/B 3.5 23:01:14 10° SW 23:08:49 59° NW 23:16:15 10° NNE
Cosmos 1140 Rocket 3.6 23:07:18 39° SSE 23:08:57 57° ESE 23:14:05 10° NNE
IGS 5A 4.1 23:12:41 38° E 23:13:05 39° ENE 23:16:58 10° N
SPOT 5 4.5 23:11:38 13° SW 23:14:29 24° W 23:18:01 10° NW
Cosmos 1842 Rocket 4.4 23:11:02 10° N 23:15:04 35° ENE 23:15:21 35° E
SPOT 1/Viking Rocket 4.0 23:12:55 28° SSW 23:15:26 55° W 23:20:30 10° NNW
Terra 2.2 23:14:42 43° ESE 23:15:42 50° ENE 23:20:19 10° N
NOSS 3-2 (A) 4.3 23:20:30 30° ESE 23:20:30 30° ESE 23:25:41 10° NE
Lacrosse 4 Rocket 3.6 23:16:54 10° WSW 23:20:16 25° NW 23:23:43 10° N
SAR-Lupe-2 3.7 23:23:38 63° NE 23:23:38 63° NE 23:26:59 10° N
Cosmos 2084 3.3 23:19:58 10° NNW 23:24:08 74° NE 23:24:37 65° ESE
USA 234 3.2 23:21:50 35° SE 23:24:52 84° NE 23:31:29 10° NW
Cosmos 1470 4.3 23:25:14 10° NNE 23:27:56 24° ENE 23:27:56 24° ENE
Cosmos 1092 Rocket 4.3 23:27:08 41° SE 23:28:42 50° E 23:34:43 10° NNE
Cosmos 1805 3.2 23:26:08 10° N 23:29:59 71° ENE 23:29:59 71° ENE
Cosmos 614 Rocket 4.0 23:30:46 54° SE 23:31:16 56° ESE 23:36:22 10° NNE
COSMOS 2406 3.2 23:33:42 32° SSW 23:36:27 87° WNW 23:42:14 10° NNE
Nadezhda 4 Rocket 3.9 23:34:52 42° S 23:37:09 80° E 23:43:30 10° N
CZ-4C R/B 4.1 23:38:41 43° SW 23:39:13 46° W 23:43:07 10° NNW
DMSP B5D2-2 4.0 23:38:50 10° NNE 23:44:08 89° ESE 23:45:23 54° SSW
Atlas Centaur 2 3.5 23:38:27 10° WSW 23:45:26 38° SSW 23:46:02 37° S
SL-27 R/B 4.1 23:45:17 27° W 23:45:50 28° WNW 23:48:48 10° N
Cosmos 2082 Rocket 4.5 23:49:20 10° ENE 23:49:20 10° ENE 23:49:23 10° ENE
Cosmos 2221 4.0 23:44:33 10° NNE 23:47:39 25° ENE 23:47:39 25° ENE
SL-8 R/B 4.1 23:43:51 10° NW 23:48:37 58° NNE 23:49:39 47° ENE
Cosmos 1943 Rocket 2.5 23:43:49 10° NNW 23:49:14 55° WSW 23:50:26 45° SSW
Cosmos-2242 3.9 23:46:47 10° NNW 23:50:57 42° W 23:51:34 40° WSW
COSMOS 2487 3.8 23:54:06 36° NNE 23:54:06 36° NNE 23:56:21 10° NNE
